Terug naar catalogus

CZ-2D DEB

ActiefSSO
NORAD 38180·DEBRIS·🇨🇳 China

Gelanceerd Nov 20, 2011 vanaf Jiuquan Satellite Launch Center

Loading…

Volgende Passages (komende 24 uur)

TLE

VersSource: Space-Track

Epoch: Sep 14, 2026, 13:26 UTC

1 38180U 11068H   26257.55983181  .00000564  00000-0  23741-3 0  9993
2 38180  98.8749 284.9257 0138410 169.1085 344.4718 14.24673796763962

Volg CZ-2D DEB in realtime met AllMySat

Download on the App Store